[[{"header":{"parameterUnit":"m.s-1","parameterCategory":1,"la1":30.2991,"la2":30.254,"lo1":-89.0895,"lo2":-89.0444,"dy":0.0017,"dx":0.0017,"nx":28,"ny":28,"refTime":"2025-07-07T21:00:00:Z","depth":0,"parameterNumber":2,"parameterNumberName":"U-component_of_WINDS"},"data":[0,0,0,0,0,0,0,0,0,0,0,0,0,0,0,0,0,0,0,0,0,0,0,0,0,0,0,0,0,0,0,0,0,0,0,0,0,0,0,0,0,0,0,0,0,0,0,0,0,0,0,0,0,0,0,0,0,0,4.4248,4.425,0,4.4442,4.4444,4.4446,4.4422,4.4419,4.4415,4.4412,4.4614,4.4622,4.463,0,0,0,0,0,0,0,0,0,0,0,0,0,4.3856,4.3863,4.4247,4.425,4.4252,4.4441,4.4444,4.4447,4.4422,4.4418,4.4415,4.4411,4.4611,4.4621,4.4631,0,0,0,0,0,0,0,0,0,0,0,0,0,4.4036,4.3866,4.4247,4.4263,4.4266,4.4441,4.4444,4.4448,4.4423,4.4418,4.4414,4.4409,4.4608,4.462,4.4632,4.4804,0,0,4.467,4.4675,0,0,0,0,0,0,0,0,4.4026,4.405,4.4258,4.4262,4.4266,4.4403,4.438,4.4567,4.4424,4.4364,4.4412,4.4407,4.4547,4.4564,4.4611,4.4814,4.4822,4.4671,4.4679,4.4684,4.4688,0,0,0,0,0,0,0,4.4013,4.4042,4.4324,4.4261,4.4266,4.426,4.4281,4.4415,4.448,4.4368,4.4367,4.439,4.4549,4.4599,4.4616,4.4825,4.4671,4.4682,4.469,4.4694,4.5176,4.5181,0,0,0,0,0,0,4.3996,4.4031,4.4318,4.433,4.4132,4.4271,4.4294,4.4364,4.4478,4.4491,4.4394,4.4388,4.4581,4.4601,4.4623,4.483,4.4684,4.4696,4.4703,4.5171,4.5177,4.5183,0,0,0,0,0,0,4.3988,4.4022,4.431,4.4181,4.4217,4.4283,4.4362,4.437,4.4421,4.4498,4.4509,4.4434,4.4578,4.4605,4.4759,4.4837,4.4701,4.4713,4.5165,4.5173,4.518,4.5247,0,0,0,0,0,0,4.3977,4.4019,4.4085,4.4182,4.4224,4.4443,4.4366,4.4377,4.4442,4.4436,4.4538,4.4551,4.4576,4.474,4.4771,4.4852,4.4722,4.5158,4.5168,4.5178,4.5238,4.5257,4.5272,0,0,0,0,0,4.3963,4.4098,4.4089,4.4124,4.4308,4.4447,4.4471,4.4497,4.4448,4.4515,4.4564,4.4547,4.4824,4.4756,4.4791,4.4876,4.5153,4.5165,4.5177,4.5231,4.5253,4.5272,0,0,0,0,0,0,4.4009,4.411,4.4102,4.4272,4.4351,4.4443,4.4528,4.452,4.4615,4.4606,4.4635,4.4658,4.4812,4.486,4.4783,4.5048,4.4982,4.5001,4.5011,4.5033,4.5049,4.5034,4.4733,0,0,0,0,0,4.4039,4.4144,4.4227,4.4368,4.4408,4.4461,4.4523,4.4536,4.462,4.4653,4.4714,4.4796,4.4901,4.497,4.5071,4.5246,4.5266,4.5321,4.5338,4.5352,4.5368,4.5462,4.5486,4.5222,4.5222,4.5222,0,0,4.4102,4.417,4.4235,4.4379,4.4442,4.4549,4.449,4.4607,4.4686,4.4671,4.4819,4.4866,4.496,4.5124,4.5199,4.5168,4.5445,4.5367,4.5377,4.5386,4.5476,4.5501,4.5523,4.5231,4.5229,4.5228,0,0,4.4271,4.4334,4.4457,4.4521,4.4617,4.4651,4.4681,4.4774,4.4804,4.4953,4.4943,4.5039,4.522,4.5286,4.5343,4.5536,4.5523,4.5569,4.5656,4.5747,4.5768,4.5787,4.5853,4.5877,4.5585,4.5585,4.5585,0,4.4337,4.4498,4.4522,4.464,4.4703,4.4693,4.4818,4.488,4.5004,4.5048,4.5011,4.5237,4.5299,4.5477,4.5524,4.5572,4.5606,4.5556,4.5763,4.5782,4.58,4.5863,4.5889,4.5589,4.5589,4.5588,4.5588,0,4.4574,4.4685,4.4774,4.4892,4.4966,4.5087,4.5129,4.5201,4.5207,4.5245,4.5396,4.547,4.5585,4.5629,4.5637,4.5809,4.5786,4.5756,4.569,4.5829,4.5889,4.5914,4.5596,4.5594,4.5593,4.5592,0,0,4.4777,4.4906,4.4938,4.4991,4.5095,4.5182,4.5302,4.5413,4.5473,4.556,4.566,4.5813,4.5785,4.585,4.5866,4.5946,4.6091,4.5907,4.5909,4.5936,4.6282,4.6302,4.6331,4.6084,4.6089,4.6093,4.6274,0,4.4954,4.5166,4.519,4.5378,4.5481,4.5473,4.5577,4.5652,4.5691,4.5784,4.5827,4.5933,4.589,4.5929,4.6008,4.6057,4.6161,4.6045,4.6177,4.6182,4.6152,4.6363,4.6385,4.6552,4.6298,4.6302,4.6305,0,4.519,4.528,4.5478,4.5566,4.561,4.5703,4.5806,4.5896,4.598,4.6003,4.6075,4.608,4.6203,4.6133,4.6303,4.6223,4.6279,4.6311,4.6318,4.633,4.625,4.6378,4.6606,4.663,4.6343,4.634,4.6337,0,4.5315,4.5487,4.5627,4.5673,4.578,4.5845,4.5893,4.5973,4.6037,4.6128,4.617,4.6274,4.6331,4.6412,4.6444,4.6391,4.6612,4.6545,4.6633,4.6633,4.6679,4.6675,4.6917,4.6719,4.6718,4.6718,4.6717,0,4.551,4.5631,4.5684,4.577,4.5905,4.5933,4.6065,4.6111,4.6182,4.6276,4.6276,4.6365,4.6403,4.6498,4.6525,4.666,4.6687,4.6708,4.6713,4.6707,4.6704,4.6742,4.6731,4.6724,4.6723,4.6722,4.672,0,4.5672,4.5714,4.5865,4.5953,4.5978,4.6073,4.6149,4.6232,4.6269,4.6388,4.6418,4.6477,4.6588,4.6629,4.6765,4.6783,4.6939,4.6936,4.691,4.6911,4.6995,4.6986,4.7269,4.7306,4.7085,4.7087,4.7089,0,4.5793,4.5885,4.5983,4.6045,4.6094,4.6196,4.6261,4.6292,4.636,4.6463,4.6533,4.6644,4.6733,4.6912,4.6967,4.707,4.7068,4.716,4.7084,4.7074,4.7067,4.706,4.7069,4.7174,4.7176,4.7178,4.7179,0,4.6001,4.6017,4.6111,4.6212,4.6289,4.6371,4.645,4.6501,4.6544,4.6621,4.6733,4.6803,4.6941,4.705,4.7156,4.7205,4.72,4.7203,4.7229,4.7222,4.7202,4.7212,4.6946,4.7196,4.7195,4.7193,4.7192,4.7192,4.6145,4.6226,4.6306,4.6411,4.6473,4.6546,4.6628,4.6675,4.6769,4.6882,4.6895,4.7016,4.7098,4.7239,4.7293,4.7388,4.7363,4.7401,4.741,4.7418,4.7423,4.7189,4.7408,4.7408,4.7407,4.7407,4.7407,0,4.6352,4.6403,4.6498,4.6608,4.669,4.6676,4.6763,4.6832,4.6938,4.7014,4.7102,4.7231,4.7336,4.7399,4.7505,4.7569,4.7569,4.7595,4.759,4.7601,4.7441,4.7407,4.7594,4.7594,4.7594,4.7593,4.7593,4.7593,4.6469,4.6604,4.6629,4.6794,4.6845,4.6962,4.7012,4.708,4.714,4.7284,4.7371,4.7411,4.7481,4.7592,4.7688,4.7704,4.7742,4.7771,4.7784,4.7632,4.7613,4.7594,4.7563,4.7779,4.7779,4.7936,4.7938,4.7939]},{"header":{"parameterUnit":"m.s-1","parameterCategory":1,"la1":30.2991,"la2":30.254,"lo1":-89.0895,"lo2":-89.0444,"dy":0.0017,"dx":0.0017,"nx":28,"ny":28,"refTime":"2025-07-07T21:00:00:Z","depth":0,"parameterNumber":3,"parameterNumberName":"V-component_of_WINDS"},"data":[0,0,0,0,0,0,0,0,0,0,0,0,0,0,0,0,0,0,0,0,0,0,0,0,0,0,0,0,0,0,0,0,0,0,0,0,0,0,0,0,0,0,0,0,0,0,0,0,0,0,0,0,0,0,0,0,0,0,1.3779,1.3779,0,1.3802,1.3802,1.3802,1.3779,1.3778,1.3777,1.3776,1.38,1.3802,1.3803,0,0,0,0,0,0,0,0,0,0,0,0,0,1.3713,1.3714,1.3779,1.3779,1.3779,1.3802,1.3802,1.3803,1.3779,1.3778,1.3776,1.3775,1.38,1.3801,1.3803,0,0,0,0,0,0,0,0,0,0,0,0,0,1.3739,1.3714,1.3779,1.377,1.3769,1.3802,1.3802,1.3803,1.3779,1.3778,1.3776,1.3775,1.3799,1.3801,1.3803,1.3846,0,0,1.381,1.3811,0,0,0,0,0,0,0,0,1.3738,1.3742,1.3771,1.3771,1.377,1.3786,1.3788,1.3817,1.3779,1.3775,1.3776,1.3774,1.3797,1.3799,1.3806,1.3847,1.3848,1.3811,1.3812,1.3813,1.3814,0,0,0,0,0,0,0,1.3736,1.374,1.3788,1.3771,1.3771,1.3765,1.3767,1.3793,1.3794,1.3776,1.3774,1.3777,1.3796,1.3804,1.3807,1.3848,1.3811,1.3813,1.3814,1.3815,1.3922,1.3924,0,0,0,0,0,0,1.3735,1.3739,1.3787,1.3789,1.375,1.3767,1.377,1.3782,1.3793,1.3794,1.3778,1.3776,1.3801,1.3804,1.3808,1.3857,1.3813,1.3815,1.3816,1.3921,1.3923,1.3924,0,0,0,0,0,0,1.3734,1.374,1.3786,1.3763,1.3769,1.377,1.3784,1.3783,1.3792,1.3795,1.3795,1.3787,1.38,1.3804,1.3836,1.3857,1.3816,1.3818,1.3919,1.3921,1.3923,1.3956,0,0,0,0,0,0,1.3732,1.3739,1.3756,1.3764,1.377,1.3815,1.3785,1.3785,1.3796,1.3793,1.3803,1.3803,1.3799,1.3833,1.3838,1.386,1.382,1.3917,1.392,1.3923,1.3953,1.3959,1.3964,0,0,0,0,0,1.373,1.3764,1.3757,1.3762,1.3791,1.3816,1.3819,1.3814,1.3797,1.3814,1.3815,1.3803,1.3854,1.3836,1.3842,1.3865,1.3916,1.3919,1.3923,1.395,1.3958,1.3964,0,0,0,0,0,0,1.3759,1.3765,1.3757,1.3795,1.3805,1.3812,1.3832,1.3822,1.3837,1.3834,1.3826,1.3829,1.3862,1.3866,1.3847,1.3905,1.3882,1.3887,1.3901,1.3908,1.3914,1.3912,1.3822,0,0,0,0,0,1.377,1.379,1.3794,1.3827,1.3833,1.3832,1.3842,1.3837,1.3847,1.3851,1.3856,1.3866,1.3884,1.3896,1.3913,1.3953,1.3954,1.3971,1.3977,1.3981,1.3986,1.4006,1.4013,1.3935,1.3935,1.3935,0,0,1.3793,1.3798,1.3812,1.3833,1.3841,1.3861,1.3835,1.3859,1.3874,1.3855,1.3885,1.3888,1.3899,1.3934,1.395,1.3939,1.4007,1.3986,1.3989,1.3991,1.401,1.4017,1.4024,1.3938,1.3937,1.3937,0,0,1.3845,1.3851,1.3879,1.3887,1.3897,1.3896,1.3903,1.391,1.3912,1.3941,1.3927,1.3945,1.3977,1.3985,1.3993,1.4046,1.4034,1.4051,1.4081,1.41,1.4106,1.4112,1.413,1.4137,1.4055,1.4055,1.4056,0,1.3872,1.3902,1.3895,1.3919,1.3928,1.3911,1.3939,1.3947,1.3963,1.3969,1.3956,1.3995,1.4001,1.4037,1.405,1.4057,1.4064,1.405,1.4106,1.4111,1.4116,1.4134,1.4141,1.4057,1.4057,1.4057,1.4057,0,1.3935,1.3956,1.3977,1.3992,1.4004,1.403,1.4026,1.4039,1.4032,1.4032,1.4061,1.4068,1.4085,1.4093,1.4087,1.4129,1.4121,1.4107,1.4084,1.4126,1.4142,1.4149,1.406,1.406,1.4059,1.4058,0,0,1.4008,1.4017,1.4024,1.403,1.404,1.4056,1.4081,1.4097,1.4108,1.4119,1.4139,1.4165,1.4152,1.4161,1.4155,1.4173,1.4213,1.4156,1.4156,1.4166,1.4258,1.4268,1.4276,1.4205,1.4207,1.4208,1.4257,0,1.4059,1.4101,1.4095,1.4135,1.4154,1.4138,1.4159,1.4167,1.4167,1.4182,1.4182,1.4201,1.4182,1.4187,1.4204,1.4205,1.4231,1.4201,1.4223,1.4224,1.4221,1.4285,1.4296,1.4342,1.4263,1.4264,1.4265,0,1.4126,1.4138,1.4181,1.4186,1.4194,1.4213,1.4226,1.4242,1.425,1.4249,1.4258,1.4249,1.4272,1.4249,1.4281,1.426,1.4269,1.427,1.4272,1.4274,1.4247,1.4288,1.4357,1.4364,1.4275,1.4274,1.4273,0,1.4174,1.4201,1.423,1.4235,1.4242,1.4256,1.426,1.4266,1.4276,1.4288,1.4294,1.4309,1.4317,1.4328,1.4323,1.4306,1.4355,1.4331,1.4355,1.4355,1.4366,1.4366,1.4437,1.4372,1.4372,1.4372,1.4372,0,1.4232,1.4259,1.4251,1.4269,1.4297,1.4289,1.4318,1.4319,1.4325,1.4342,1.4329,1.4345,1.4337,1.4353,1.4349,1.4375,1.4379,1.4378,1.4377,1.4379,1.438,1.4385,1.4382,1.4374,1.4373,1.4373,1.4372,0,1.4291,1.4287,1.4317,1.4321,1.4322,1.4343,1.4346,1.4362,1.436,1.4382,1.4387,1.4384,1.4402,1.4397,1.4417,1.4414,1.4447,1.4442,1.4445,1.4443,1.4467,1.4464,1.4545,1.4554,1.4483,1.4483,1.4484,0,1.4329,1.4349,1.4354,1.4364,1.4369,1.4386,1.4395,1.4387,1.4397,1.4407,1.4422,1.4438,1.4451,1.4479,1.4479,1.4493,1.4488,1.4515,1.449,1.4492,1.4488,1.4487,1.4488,1.452,1.4521,1.4522,1.4522,0,1.4396,1.4393,1.4407,1.442,1.4432,1.4442,1.4451,1.446,1.4452,1.4464,1.4482,1.4491,1.451,1.4526,1.4539,1.4542,1.4531,1.453,1.4536,1.4539,1.454,1.4539,1.4458,1.4528,1.4528,1.4527,1.4527,1.4527,1.4445,1.4462,1.4467,1.4483,1.4489,1.4497,1.4512,1.4511,1.4526,1.454,1.4534,1.4554,1.456,1.4576,1.4581,1.4596,1.4586,1.4595,1.4597,1.4599,1.4602,1.4537,1.4598,1.4598,1.4598,1.4598,1.4598,0,1.4511,1.4514,1.4528,1.4541,1.4553,1.454,1.4549,1.456,1.4577,1.4584,1.4596,1.4615,1.463,1.4631,1.4645,1.4657,1.4652,1.466,1.466,1.466,1.4611,1.4604,1.4664,1.4664,1.4664,1.4664,1.4664,1.4664,1.4547,1.4573,1.457,1.4599,1.4601,1.462,1.4626,1.4633,1.4638,1.466,1.4673,1.4672,1.4676,1.469,1.4703,1.4703,1.4708,1.4719,1.4717,1.4671,1.4664,1.4658,1.4651,1.472,1.472,1.4765,1.4765,1.4766]}]]